H1 CPF 1 NER 2019 8 26 9 7381 glonass137 H2 1705501 9137 42939 2019 8 26 0 0 0 2019 8 29 23 45 0 900 1 1 0 0 0 H9 10 0 58721 0.00000 0 5272526.176 -20440356.983 -14317980.967 10 0 58721 900.00000 0 6013882.605 -21869596.192 -11675270.446 10 0 58721 1800.00000 0 6492795.837 -23047840.780 -8805811.181 10 0 58721 2700.00000 0 6738347.222 -23924788.532 -5765380.222 10 0 58721 3600.00000 0 6789173.909 -24459160.440 -2613041.507 10 0 58721 4500.00000 0 6691578.862 -24620450.023 590003.226 10 0 58721 5400.00000 0 6497324.368 -24390239.428 3781602.695 10 0 58721 6300.00000 0 6261203.181 -23763027.429 6899860.283 10 0 58721 7200.00000 0 6038490.527 -22746535.178 9884330.692 10 0 58721 8100.00000 0 5882384.980 -21361477.376 12677186.023 10 0 58721 9000.00000 0 5841546.274 -19640808.755 15224329.083 10 0 58721 9900.00000 0 5957833.768 -17628477.548 17476432.884 10 0 58721 10800.00000 0 6264340.642 -15377737.861 19389887.038 10 0 58721 11700.00000 0 6783806.380 -12949090.837 20927633.713 10 0 58721 12600.00000 0 7527474.212 -10407939.665 22059877.858 10 0 58721 13500.00000 0 8494441.720 -7822054.902 22764658.956 10 0 58721 14400.00000 0 9671532.406 -5258954.137 23028273.974 10 0 58721 15300.00000 0 11033694.518 -2783303.467 22845543.753 10 0 58721 16200.00000 0 12544911.729 -454447.218 22219917.859 10 0 58721 17100.00000 0 14159589.131 1675832.941 21163415.532 10 0 58721 18000.00000 0 15824358.255 3565237.485 19696403.268 10 0 58721 18900.00000 0 17480227.346 5182468.321 17847212.341 10 0 58721 19800.00000 0 19064988.455 6508285.284 15651602.439 10 0 58721 20700.00000 0 20515781.780 7536056.170 13152080.559 10 0 58721 21600.00000 0 21771710.596 8271777.552 10397087.060 10 0 58721 22500.00000 0 22776397.374 8733565.649 7440063.576 10 0 58721 23400.00000 0 23480373.506 8950638.611 4338420.143 10 0 58721 24300.00000 0 23843201.467 8961833.250 1152421.187 10 0 58721 25200.00000 0 23835239.075 8813718.989 -2055988.024 10 0 58721 26100.00000 0 23438970.177 8558389.209 -5224391.147 10 0 58721 27000.00000 0 22649844.328 8251024.083 -8291122.542 10 0 58721 27900.00000 0 21476588.651 7947329.062 -11196476.361 10 0 58721 28800.00000 0 19940977.525 7700958.583 -13883878.272 10 0 58721 29700.00000 0 18077068.820 7561035.395 -16300995.993 10 0 58721 30600.00000 0 15929938.032 7569871.838 -18400766.147 10 0 58721 31500.00000 0 13553963.140 7760990.691 -20142316.636 10 0 58721 32400.00000 0 11010731.903 8157530.437 -21491766.190 10 0 58721 33300.00000 0 8366659.222 8771103.229 -22422885.357 10 0 58721 34200.00000 0 5690414.335 9601154.446 -22917606.070 10 0 58721 35100.00000 0 3050265.325 10634851.386 -22966370.190 10 0 58721 36000.00000 0 511451.621 11847506.093 -22568310.617 10 0 58721 36900.00000 0 -1866306.195 13203514.645 -21731261.913 10 0 58721 37800.00000 0 -4031056.092 14657773.446 -20471600.734 10 0 58721 38700.00000 0 -5940530.988 16157512.893 -18813919.609 10 0 58721 39600.00000 0 -7563653.078 17644471.246 -16790540.871 10 0 58721 40500.00000 0 -8881564.903 19057317.170 -14440880.580 10 0 58721 41400.00000 0 -9888145.891 20334219.066 -11810675.134 10 0 58721 42300.00000 0 -10589994.700 21415453.049 -8951086.023 10 0 58721 43200.00000 0 -11005880.214 22245939.984 -5917700.462 10 0 58721 44100.00000 0 -11165686.298 22777604.950 -2769447.676 10 0 58721 45000.00000 0 -11108896.569 22971460.098 432547.699 10 0 58721 45900.00000 0 -10882684.683 22799323.614 3626152.542 10 0 58721 46800.00000 0 -10539691.958 22245102.852 6749429.271 10 0 58721 47700.00000 0 -10135587.049 21305588.077 9741833.477 10 0 58721 48600.00000 0 -9726511.188 19990723.839 12545382.082 10 0 58721 49500.00000 0 -9366516.994 18323346.734 15105769.791 10 0 58721 50400.00000 0 -9105108.716 16338400.572 17373412.708 10 0 58721 51300.00000 0 -8984987.265 14081661.471 19304399.735 10 0 58721 52200.00000 0 -9040094.550 11608025.504 20861334.311 10 0 58721 53100.00000 0 -9294038.999 8979429.451 22014051.097 10 0 58721 54000.00000 0 -9758968.231 6262489.974 22740194.734 10 0 58721 54900.00000 0 -10434936.258 3525957.925 23025650.230 10 0 58721 55800.00000 0 -11309792.218 838092.021 22864817.101 10 0 58721 56700.00000 0 -12359596.057 -1735940.728 22260722.132 10 0 58721 57600.00000 0 -13549544.948 -4136531.527 21224968.320 10 0 58721 58500.00000 0 -14835372.961 -6311862.100 19777520.341 10 0 58721 59400.00000 0 -16165166.899 -8219811.207 17946329.775 10 0 58721 60300.00000 0 -17481523.656 -9829456.929 15766806.091 10 0 58721 61200.00000 0 -18723959.862 -11122112.562 13281142.391 10 0 58721 62100.00000 0 -19831473.625 -12091853.220 10537507.718 10 0 58721 63000.00000 0 -20745151.193 -12745511.255 7589120.431 10 0 58721 63900.00000 0 -21410708.862 -13102140.615 4493219.928 10 0 58721 64800.00000 0 -21780862.603 -13191972.781 1309956.186 10 0 58721 65700.00000 0 -21817424.576 -13054908.361 -1898781.315 10 0 58721 66600.00000 0 -21493036.810 -12738608.297 -5070572.078 10 0 58721 67500.00000 0 -20792467.451 -12296265.891 -8143686.313 10 0 58721 68400.00000 0 -19713413.284 -11784154.665 -11058295.189 10 0 58721 69300.00000 0 -18266773.211 -11259056.753 -13757644.923 10 0 58721 70200.00000 0 -16476379.830 -10775681.824 -16189170.835 10 0 58721 71100.00000 0 -14378199.312 -10384186.896 -18305528.788 10 0 58721 72000.00000 0 -12019032.414 -10127903.053 -20065523.115 10 0 58721 72900.00000 0 -9454770.626 -10041366.193 -21434912.579 10 0 58721 73800.00000 0 -6748280.129 -10148735.736 -22387078.485 10 0 58721 74700.00000 0 -3967002.021 -10462668.630 -22903541.939 10 0 58721 75600.00000 0 -1180368.869 -10983696.437 -22974320.519 10 0 58721 76500.00000 0 1542854.760 -11700131.886 -22598117.747 10 0 58721 77400.00000 0 4137197.146 -12588508.700 -21782342.182 10 0 58721 78300.00000 0 6542960.761 -13614535.963 -20542956.209 10 0 58721 79200.00000 0 8708457.510 -14734526.545 -18904157.947 10 0 58721 80100.00000 0 10591905.611 -15897239.059 -16897902.866 10 0 58721 81000.00000 0 12162910.390 -17046055.461 -14563274.854 10 0 58721 81900.00000 0 13403468.742 -18121402.286 -11945719.246 10 0 58721 82800.00000 0 14308457.018 -19063313.253 -9096153.186 10 0 58721 83700.00000 0 14885583.913 -19814025.132 -6069970.935 10 0 58721 84600.00000 0 15154812.330 -20320497.438 -2925963.787 10 0 58721 85500.00000 0 15147276.428 -20536749.777 274823.952 10 0 58722 0.00000 0 14903741.195 -20425918.614 3470280.415 10 0 58722 900.00000 0 14472670.944 -19961946.593 6598430.194 10 0 58722 1800.00000 0 13907989.097 -19130834.747 9598632.489 10 0 58722 2700.00000 0 13266624.810 -17931403.132 12412751.516 10 0 58722 3600.00000 0 12605949.744 -16375530.083 14986276.019 10 0 58722 4500.00000 0 11981213.341 -14487858.578 17269366.952 10 0 58722 5400.00000 0 11443084.085 -12304982.240 19217813.881 10 0 58722 6300.00000 0 11035399.773 -9874144.142 20793882.497 10 0 58722 7200.00000 0 10793220.757 -7251501.830 21967037.778 10 0 58722 8100.00000 0 10741267.367 -4500029.527 22714529.767 10 0 58722 9000.00000 0 10892806.789 -1687143.233 23021831.425 10 0 58722 9900.00000 0 11249035.951 1117854.212 22882920.539 10 0 58722 10800.00000 0 11798986.614 3846403.825 22300400.449 10 0 58722 11700.00000 0 12519957.233 6433289.466 21285456.992 10 0 58722 12600.00000 0 13378454.463 8819098.671 19857651.912 10 0 58722 13500.00000 0 14331605.954 10952444.449 18044555.789 10 0 58722 14400.00000 0 15328986.446 12791856.632 15881226.384 10 0 58722 15300.00000 0 16314781.624 14307264.584 13409541.264 10 0 58722 16200.00000 0 17230199.758 15481009.789 10677396.337 10 0 58722 17100.00000 0 18016030.258 16308346.104 7737784.708 10 0 58722 18000.00000 0 18615241.509 16797406.602 4647772.983 10 0 58722 18900.00000 0 18975508.152 16968638.358 1467394.418 10 0 58722 19800.00000 0 19051560.351 16853728.936 -1741519.669 10 0 58722 20700.00000 0 18807254.681 16494069.894 -4916547.040 10 0 58722 21600.00000 0 18217277.682 15938822.558 -7995896.132 10 0 58722 22500.00000 0 17268408.478 15242668.286 -10919617.414 10 0 58722 23400.00000 0 15960285.520 14463339.151 -13630779.800 10 0 58722 24300.00000 0 14305643.511 13659034.380 -16076588.202 10 0 58722 25200.00000 0 12330009.105 12885832.808 -18209419.542 10 0 58722 26100.00000 0 10070867.092 12195211.712 -19987756.273 10 0 58722 27000.00000 0 7576331.174 11631777.727 -21376998.753 10 0 58722 27900.00000 0 4903374.402 11231306.314 -22350140.501 10 0 58722 28800.00000 0 2115692.994 11019172.930 -22888293.149 10 0 58722 29700.00000 0 -718707.493 11009242.198 -22981051.181 10 0 58722 30600.00000 0 -3530103.195 11203261.781 -22626689.723 10 0 58722 31500.00000 0 -6249712.277 11590786.157 -21832192.007 10 0 58722 32400.00000 0 -8812314.183 12149632.961 -20613106.460 10 0 58722 33300.00000 0 -11158719.245 12846852.085 -18993236.668 10 0 58722 34200.00000 0 -13237986.485 13640165.980 -17004170.683 10 0 58722 35100.00000 0 -15009298.216 14479819.826 -14684659.215 10 0 58722 36000.00000 0 -16443414.575 15310762.958 -12079855.138 10 0 58722 36900.00000 0 -17523648.663 16075069.007 -9240429.503 10 0 58722 37800.00000 0 -18246323.303 16714492.264 -6221581.564 10 0 58722 38700.00000 0 -18620692.101 17173052.125 -3081962.402 10 0 58722 39600.00000 0 -18668329.949 17399536.358 117466.512 10 0 58722 40500.00000 0 -18422020.382 17349817.588 3314617.377 10 0 58722 41400.00000 0 -17924188.130 16988885.295 6447479.536 10 0 58722 42300.00000 0 -17224944.130 16292507.830 9455318.861 10 0 58722 43200.00000 0 -16379826.229 15248454.521 12279849.922 10 0 58722 44100.00000 0 -15447331.201 13857226.499 14866358.566 10 0 58722 45000.00000 0 -14486342.101 12132265.407 17164753.642 10 0 58722 45900.00000 0 -13553558.904 10099630.853 19130528.317 10 0 58722 46800.00000 0 -12701039.897 7797159.423 20725613.300 10 0 58722 47700.00000 0 -11973956.353 5273139.420 21919106.397 10 0 58722 48600.00000 0 -11408653.943 2584555.275 22687865.244 10 0 58722 49500.00000 0 -11031101.442 -205026.906 23016952.568 10 0 58722 50400.00000 0 -10855791.247 -3027846.427 22899925.813 10 0 58722 51300.00000 0 -10885137.531 -5814510.450 22338965.778 10 0 58722 52200.00000 0 -11109397.340 -8496627.303 21344841.540 10 0 58722 53100.00000 0 -11507118.380 -11009402.873 19936711.767 10 0 58722 54000.00000 0 -12046095.427 -13294093.724 18141765.352 10 0 58722 54900.00000 0 -12684796.112 -15300216.061 15994707.137 10 0 58722 55800.00000 0 -13374197.154 -16987419.240 13537097.430 10 0 58722 56700.00000 0 -14059954.650 -18326946.100 10816556.837 10 0 58722 57600.00000 0 -14684817.664 -19302619.220 7885850.651 10 0 58722 58500.00000 0 -15191183.608 -19911311.595 4801869.830 10 0 58722 59400.00000 0 -15523687.427 -20162881.794 1624527.802 10 0 58722 60300.00000 0 -15631714.568 -20079576.091 -1584405.545 10 0 58722 61200.00000 0 -15471730.491 -19694922.588 -4762509.629 10 0 58722 62100.00000 0 -15009326.831 -19052164.066 -7847934.572 10 0 58722 63000.00000 0 -14220896.081 -18202295.990 -10780613.630 10 0 58722 63900.00000 0 -13094862.285 -17201793.081 -13503441.842 10 0 58722 64800.00000 0 -11632414.042 -16110121.226 -15963397.011 10 0 58722 65700.00000 0 -9847707.291 -14987140.675 -18112580.215 10 0 58722 66600.00000 0 -7767527.947 -13890511.047 -19909154.792 10 0 58722 67500.00000 0 -5430427.393 -12873208.456 -21318165.054 10 0 58722 68400.00000 0 -2885366.173 -11981260.060 -22312218.607 10 0 58722 69300.00000 0 -189922.107 -11251791.888 -22872018.942 10 0 58722 70200.00000 0 2591862.754 -10711472.212 -22986738.241 10 0 58722 71100.00000 0 5391906.789 -10375415.747 -22654223.492 10 0 58722 72000.00000 0 8140684.138 -10246594.275 -21881032.365 10 0 58722 72900.00000 0 10769882.901 -10315777.719 -20682298.653 10 0 58722 73800.00000 0 13215015.871 -10562007.213 -19081430.316 10 0 58722 74700.00000 0 15417875.488 -10953579.216 -17109646.483 10 0 58722 75600.00000 0 17328731.505 -11449498.172 -14805362.790 10 0 58722 76500.00000 0 18908180.672 -12001335.467 -12213437.349 10 0 58722 77400.00000 0 20128572.377 -12555415.396 -9384292.415 10 0 58722 78300.00000 0 20974952.095 -13055235.112 -6372929.171 10 0 58722 79200.00000 0 21445484.734 -13444015.810 -3237855.108 10 0 58722 80100.00000 0 21551341.793 -13667276.982 -39945.280 10 0 58722 81000.00000 0 21316058.725 -13675324.793 3158740.177 10 0 58722 81900.00000 0 20774391.064 -13425549.374 6296159.110 10 0 58722 82800.00000 0 19970718.702 -12884434.123 9311487.461 10 0 58722 83700.00000 0 18957066.453 -12029192.297 12146293.309 10 0 58722 84600.00000 0 17790824.763 -10848961.941 14745662.406 10 0 58722 85500.00000 0 16532266.648 -9345508.804 17059253.873 10 0 58723 0.00000 0 15241964.981 -7533407.427 19042266.373 10 0 58723 900.00000 0 13978218.206 -5439691.702 20656297.188 10 0 58723 1800.00000 0 12794591.130 -3102989.861 21870077.969 10 0 58723 2700.00000 0 11737674.079 -572176.857 22660074.569 10 0 58723 3600.00000 0 10845151.877 2095399.598 23010939.705 10 0 58723 4500.00000 0 10144263.699 4836048.216 22915810.328 10 0 58723 5400.00000 0 9650717.093 7582131.581 22376444.184 10 0 58723 6300.00000 0 9368101.335 10264634.331 21403192.745 10 0 58723 7200.00000 0 9287824.622 12815797.080 20014810.458 10 0 58723 8100.00000 0 9389577.960 15171708.197 18238103.112 10 0 58723 9000.00000 0 9642306.763 17274746.986 16107420.964 10 0 58723 9900.00000 0 10005649.998 19075777.207 13664005.183 10 0 58723 10800.00000 0 10431787.006 20536000.040 10955198.981 10 0 58723 11700.00000 0 10867614.735 21628389.109 8033537.577 10 0 58723 12600.00000 0 11257163.875 22338647.269 4955733.860 10 0 58723 13500.00000 0 11544151.788 22665644.673 1781578.891 10 0 58723 14400.00000 0 11674563.872 22621319.268 -1427221.479 10 0 58723 15300.00000 0 11599153.293 22230043.499 -4608250.907 10 0 58723 16200.00000 0 11275752.070 21527483.701 -7699603.722 10 0 58723 17100.00000 0 10671294.156 20559000.252 -10641098.325 10 0 58723 18000.00000 0 9763463.249 19377656.260 -13375458.066 10 0 58723 18900.00000 0 8541893.907 18041919.282 -15849435.611 10 0 58723 19800.00000 0 7008873.471 16613153.684 -18014857.966 10 0 58723 20700.00000 0 5179513.690 15153010.158 -19829570.945 10 0 58723 21600.00000 0 3081383.397 13720823.109 -21258264.270 10 0 58723 22500.00000 0 753616.525 12371126.071 -22273160.958 10 0 58723 23400.00000 0 -1754467.944 11151390.090 -22854557.559 10 0 58723 24300.00000 0 -4385177.009 10100080.214 -22991204.996 10 0 58723 25200.00000 0 -7074610.417 9245111.473 -22680522.953 10 0 58723 26100.00000 0 -9755092.985 8602768.629 -21928644.097 10 0 58723 27000.00000 0 -12357771.320 8177134.173 -20750287.788 10 0 58723 27900.00000 0 -14815267.008 7960047.405 -19168466.180 10 0 58723 28800.00000 0 -17064275.954 7931595.039 -17214028.896 10 0 58723 29700.00000 0 -19048006.044 8061111.279 -14925055.531 10 0 58723 30600.00000 0 -20718352.138 8308643.851 -12346108.111 10 0 58723 31500.00000 0 -22037718.372 8626822.934 -9527358.487 10 0 58723 32400.00000 0 -22980412.752 8963052.987 -6523607.911 10 0 58723 33300.00000 0 -23533556.926 9261933.974 -3393218.216 10 0 58723 34200.00000 0 -23697474.377 9467809.036 -196975.778 10 0 58723 35100.00000 0 -23485542.239 9527330.411 3003089.385 10 0 58723 36000.00000 0 -22923514.343 9391934.910 6144906.247 10 0 58723 36900.00000 0 -22048345.194 9020124.256 9167563.609 10 0 58723 37800.00000 0 -20906565.324 8379454.007 12012485.975 10 0 58723 38700.00000 0 -19552276.935 7448147.152 14624561.995 10 0 58723 39600.00000 0 -18044854.369 6216264.392 16953204.054 10 0 58723 40500.00000 0 -16446445.797 4686381.626 18953319.291 10 0 58723 41400.00000 0 -14819380.422 2873745.681 20586174.154 10 0 58723 42300.00000 0 -13223589.055 805900.999 21820136.665 10 0 58723 43200.00000 0 -11714145.001 -1478198.313 22631283.052 10 0 58723 44100.00000 0 -10339026.931 -3929555.483 23003857.779 10 0 58723 45000.00000 0 -9137196.188 -6490921.880 22930578.646 10 0 58723 45900.00000 0 -8137067.805 -9098939.002 22412781.257 10 0 58723 46800.00000 0 -7355438.356 -11686544.566 21460399.943 10 0 58723 47700.00000 0 -6796914.972 -14185544.470 20091784.936 10 0 58723 48600.00000 0 -6453869.196 -16529245.391 18333358.480 10 0 58723 49500.00000 0 -6306917.648 -18655039.836 16219115.359 10 0 58723 50400.00000 0 -6325909.659 -20506836.854 13789976.284 10 0 58723 51300.00000 0 -6471380.726 -22037237.578 11093005.372 10 0 58723 52200.00000 0 -6696410.961 -23209364.831 8180505.715 10 0 58723 53100.00000 0 -6948810.463 -23998269.875 5109009.781 10 0 58723 54000.00000 0 -7173539.274 -24391856.897 1938183.681 10 0 58723 54900.00000 0 -7315259.285 -24391285.699 -1270333.561 10 0 58723 55800.00000 0 -7320909.388 -24010835.001 -4454132.805 10 0 58723 56700.00000 0 -7142193.756 -23277231.580 -7551255.682 10 0 58723 57600.00000 0 -6737876.487 -22228473.151 -10501408.937 10 0 58723 58500.00000 0 -6075783.861 -20912194.539 -13247147.480 10 0 58723 59400.00000 0 -5134427.766 -19383646.205 -15735002.070 10 0 58723 60300.00000 0 -3904179.883 -17703370.697 -17916528.752 10 0 58723 61200.00000 0 -2387945.489 -15934675.492 -19749258.737 10 0 58723 62100.00000 0 -601306.938 -14141009.154 -21197529.769 10 0 58723 63000.00000 0 1427870.505 -12383351.684 -22233182.512 10 0 58723 63900.00000 0 3660354.873 -10717729.050 -22836108.384 10 0 58723 64800.00000 0 6046948.189 -9192956.351 -22994638.396 10 0 58723 65700.00000 0 8530313.561 -7848703.974 -22705765.830 10 0 58723 66600.00000 0 11047152.660 -6713967.340 -21975198.818 10 0 58723 67500.00000 0 13530642.924 -5806003.390 -20817242.340 10 0 58723 68400.00000 0 15913033.016 -5129777.190 -19254512.391 10 0 58723 69300.00000 0 18128288.380 -4677940.386 -17317488.314 10 0 58723 70200.00000 0 20114676.827 -4431340.792 -15043912.433 10 0 58723 71100.00000 0 21817186.633 -4360039.925 -12478048.996 10 0 58723 72000.00000 0 23189676.623 -4424794.071 -9669817.248 10 0 58723 72900.00000 0 24196669.149 -4578934.905 -6673815.831 10 0 58723 73800.00000 0 24814711.855 -4770568.982 -3548257.811 10 0 58723 74700.00000 0 25033252.208 -4945002.195 -353837.441 10 0 58723 75600.00000 0 24854989.362 -5047285.951 2847449.035 10 0 58723 76500.00000 0 24295689.764 -5024776.905 5993505.452 10 0 58723 77400.00000 0 23383475.365 -4829601.844 9023337.133 10 0 58723 78300.00000 0 22157615.270 -4420923.439 11878228.493 10 0 58723 79200.00000 0 20666872.213 -3766911.261 14502874.271 10 0 58723 80100.00000 0 18967473.590 -2846334.941 16846442.968 10 0 58723 81000.00000 0 17120792.079 -1649712.304 18863552.623 10 0 58723 81900.00000 0 15190832.531 -179963.858 20515140.975 10 0 58723 82800.00000 0 13241629.570 1547454.375 21769214.045 10 0 58723 83700.00000 0 11334663.615 3504946.217 22601459.667 10 0 58723 84600.00000 0 9526401.968 5653683.687 22995714.887 10 0 58723 85500.00000 0 7866066.361 7944991.948 22944278.759 10 0 58724 0.00000 0 6393718.780 10322154.967 22448064.751 10 0 58724 900.00000 0 5138744.503 12722568.837 21516589.569 10 0 58724 1800.00000 0 4118794.217 15080154.518 20167798.414 10 0 58724 2700.00000 0 3339230.057 17327931.834 18427728.734 10 0 58724 3600.00000 0 2793096.868 19400648.815 16330018.263 10 0 58724 4500.00000 0 2461621.077 21237357.701 13915265.359 10 0 58724 5400.00000 0 2315215.731 22783830.864 11230252.874 10 0 58724 6300.00000 0 2314949.801 23994715.817 8327049.371 10 0 58724 7200.00000 0 2414419.969 24835338.749 5262004.298 10 0 58724 8100.00000 0 2561945.878 25283080.442 2094656.055 10 0 58724 9000.00000 0 2702995.786 25328265.924 -1113426.006 10 0 58724 9900.00000 0 2782739.423 24974529.553 -4299842.816 10 0 58724 10800.00000 0 2748619.004 24238639.313 -7402586.107 10 0 58724 11700.00000 0 2552828.290 23149787.016 -10361253.640 10 0 58724 12600.00000 0 2154593.196 21748373.854 -13118234.349 10 0 58724 13500.00000 0 1522155.784 20084342.293 -15619839.321 10 0 58724 14400.00000 0 634376.005 18215124.606 -17817355.640 10 0 58724 15300.00000 0 -518118.109 16203294.694 -19668001.680 10 0 58724 16200.00000 0 -1932281.853 14114022.311 -21135764.762 10 0 58724 17100.00000 0 -3592535.520 12012437.046 -22192104.563 10 0 58724 18000.00000 0 -5471182.372 9961012.991 -22816508.538 10 0 58724 18900.00000 0 -7529346.199 8017083.869 -22996888.758 10 0 58724 19800.00000 0 -9718389.845 6230592.458 -22729812.806 10 0 58724 20700.00000 0 -11981755.610 4642168.106 -22020564.680 10 0 58724 21600.00000 0 -14257150.878 3281611.866 -20883035.036 10 0 58724 22500.00000 0 -16478987.761 2166851.427 -19339443.372 10 0 58724 23400.00000 0 -18580974.879 1303408.138 -17419898.031 10 0 58724 24300.00000 0 -20498753.128 684396.672 -15161802.985 10 0 58724 25200.00000 0 -22172465.480 291055.439 -12609123.297 10 0 58724 26100.00000 0 -23549153.606 93783.595 -9811523.928 10 0 58724 27000.00000 0 -24584881.489 53639.125 -6823399.015 10 0 58724 27900.00000 0 -25246497.733 124233.218 -3702810.758 10 0 58724 28800.00000 0 -25512963.415 253939.608 -510359.007 10 0 58724 29700.00000 0 -25376190.709 388324.476 2691996.223 10 0 58724 30600.00000 0 -24841358.004 472693.415 5842136.252 10 0 58724 31500.00000 0 -23926689.233 454647.371 8878985.711 10 0 58724 32400.00000 0 -22662707.459 286539.312 11743691.804 10 0 58724 33300.00000 0 -21090994.652 -72272.157 14380758.307 10 0 58724 34200.00000 0 -19262509.951 -653467.246 16739112.745 10 0 58724 35100.00000 0 -17235536.866 -1478189.872 18773086.851 10 0 58724 36000.00000 0 -15073344.861 -2555919.379 20443292.226 10 0 58724 36900.00000 0 -12841662.368 -3883836.795 21717375.166 10 0 58724 37800.00000 0 -10606065.637 -5446712.855 22570637.019 10 0 58724 38700.00000 0 -8429391.009 -7217323.520 22986508.934 10 0 58724 39600.00000 0 -6369277.106 -9157376.896 22956872.324 10 0 58724 40500.00000 0 -4475937.878 -11218914.528 22482219.181 10 0 58724 41400.00000 0 -2790257.889 -13346130.439 21571648.980 10 0 58724 42300.00000 0 -1342288.209 -15477533.895 20242701.756 10 0 58724 43200.00000 0 -150204.655 -17548367.544 18521029.746 10 0 58724 44100.00000 0 780228.666 -19493181.656 16439912.809 10 0 58724 45000.00000 0 1455668.404 -21248458.159 14039625.780 10 0 58724 45900.00000 0 1894673.360 -22755175.638 11366668.716 10 0 58724 46800.00000 0 2126680.019 -23961208.272 8472873.796 10 0 58724 47700.00000 0 2190515.259 -24823457.967 5414405.300 10 0 58724 48600.00000 0 2132509.012 -25309629.662 2250671.525 10 0 58724 49500.00000 0 2004286.816 -25399574.289 -956830.451 10 0 58724 50400.00000 0 1860336.070 -25086141.803 -4145714.399 10 0 58724 51300.00000 0 1755449.789 -24375507.253 -7253925.060 10 0 58724 52200.00000 0 1742157.222 -23286955.096 -10220954.213 10 0 58724 53100.00000 0 1868251.453 -21852130.000 -12989027.868 10 0 58724 54000.00000 0 2174520.202 -20113785.147 -15504240.485 10 0 58724 54900.00000 0 2692777.446 -18124080.353 -17717613.135 10 0 58724 55800.00000 0 3444280.616 -15942501.634 -19586054.121 10 0 58724 56700.00000 0 4438601.692 -13633489.744 -21073202.841 10 0 58724 57600.00000 0 5673001.103 -11263877.424 -22150140.143 10 0 58724 58500.00000 0 7132331.814 -8900243.082 -22795951.281 10 0 58724 59400.00000 0 8789478.512 -6606291.792 -22998130.726 10 0 58724 60300.00000 0 10606314.032 -4440373.019 -22752821.293 10 0 58724 61200.00000 0 12535133.276 -2453238.489 -22064883.383 10 0 58724 62100.00000 0 14520504.753 -686133.135 -20947793.483 10 0 58724 63000.00000 0 16501462.309 830702.254 -19423374.393 10 0 58724 63900.00000 0 18413945.261 2079055.434 -17521362.873 10 0 58724 64800.00000 0 20193384.789 3053253.082 -15278823.573 10 0 58724 65700.00000 0 21777328.345 3760137.693 -12739420.973 10 0 58724 66600.00000 0 23107992.183 4218513.976 -9952563.923 10 0 58724 67500.00000 0 24134635.302 4458090.088 -6972439.766 10 0 58724 68400.00000 0 24815655.590 4517960.170 -3856957.158 10 0 58724 69300.00000 0 25120320.699 4444693.838 -666618.533 10 0 58724 70200.00000 0 25030061.624 4290114.639 2536655.576 10 0 58724 71100.00000 0 24539275.349 4108862.390 5690727.339 10 0 58724 72000.00000 0 23655603.559 3955843.046 8734444.063 10 0 58724 72900.00000 0 22399676.344 3883674.245 11608819.024 10 0 58724 73800.00000 0 20804332.091 3940234.541 14258168.136 10 0 58724 74700.00000 0 18913346.528 4166419.633 16631180.807 10 0 58724 75600.00000 0 16779724.041 4594200.060 18681905.047 10 0 58724 76500.00000 0 14463622.281 5245062.022 20370628.611 10 0 58724 77400.00000 0 12029996.036 6128896.903 21664640.030 10 0 58724 78300.00000 0 9546057.530 7243386.433 22538855.802 10 0 58724 79200.00000 0 7078657.634 8573909.876 22976302.430 10 0 58724 80100.00000 0 4691695.546 10093978.106 22968444.550 10 0 58724 81000.00000 0 2443663.174 11766177.722 22515353.119 10 0 58724 81900.00000 0 385424.818 13543587.343 21625710.304 10 0 58724 82800.00000 0 -1441676.689 15371608.636 20316650.507 10 0 58724 83700.00000 0 -3007309.650 17190137.329 18613439.783 10 0 58724 84600.00000 0 -4293177.758 18935985.164 16548998.743 10 0 58724 85500.00000 0 -5293536.588 20545452.789 14163276.939 99